| time (UTC) | temp F | wind direction | speed MPH | gust MPH | rain 1hr in | rain 24hr in | rain mn in | humidity % | barometer mb |
| 20260508141606 | 55 | 77 | 4.0 | 8.0 | 0.00 | 1.36 | 0.01 | 80 | 1001.7 |
| 20260508140110 | 54 | 45 | 1.0 | 7.0 | 0.00 | 1.36 | 0.01 | 85 | 1001.7 |
| 20260508134555 | 53 | 39 | 4.0 | 10.0 | 0.00 | 1.36 | 0.01 | 87 | 1001.7 |
| 20260508133105 | 53 | 297 | 1.0 | 5.0 | 0.00 | 1.36 | 0.01 | 92 | 1001.9 |
| 20260508131555 | 53 | 78 | 0.0 | 4.0 | 0.00 | 1.36 | 0.01 | 94 | 1002.0 |
| 20260508130048 | 53 | 48 | 2.0 | 6.0 | 0.00 | 1.36 | 0.01 | 95 | 1001.7 |
| 20260508124548 | 52 | 73 | 3.0 | 6.0 | 0.00 | 1.36 | 0.01 | 96 | 1001.9 |
| 20260508123046 | 51 | 16 | 2.0 | 8.0 | 0.00 | 1.36 | 0.01 | 97 | 1001.8 |
| 20260508121543 | 50 | 272 | 1.0 | 5.0 | 0.00 | 1.36 | 0.01 | 97 | 1001.7 |
| 20260508120044 | 50 | 50 | 2.0 | 5.0 | 0.01 | 1.39 | 0.01 | 98 | 1001.7 |
| 20260508114540 | 50 | 293 | 3.0 | 5.0 | 0.01 | 1.39 | 0.01 | 98 | 1001.7 |
| 20260508113039 | 48 | 297 | 0.0 | 4.0 | 0.01 | 1.39 | 0.01 | 97 | 1001.9 |
| 20260508111538 | 48 | 298 | 0.0 | 4.0 | 0.01 | 1.39 | 0.01 | 97 | 1002.0 |
| 20260508110036 | 46 | 288 | 0.0 | 2.0 | 0.00 | 1.38 | 0.00 | 97 | 1002.0 |
| 20260508104536 | 45 | 286 | 0.0 | 0.0 | 0.00 | 1.38 | 0.00 | 97 | 1001.8 |
| 20260508103035 | 43 | 286 | 1.0 | 2.0 | 0.00 | 1.38 | 0.00 | 97 | 1002.2 |
| 20260508101540 | 42 | 286 | 0.0 | 0.0 | 0.00 | 1.38 | 0.00 | 97 | 1002.2 |
| 20260508100035 | 42 | 286 | 0.0 | 0.0 | 0.00 | 1.38 | 0.00 | 97 | 1002.2 |
| 20260508094533 | 41 | 286 | 0.0 | 0.0 | 0.00 | 1.38 | 0.00 | 97 | 1002.2 |
| 20260508093036 | 41 | 286 | 0.0 | 0.0 | 0.00 | 1.38 | 0.00 | 97 | 1002.2 |
| 20260508091533 | 41 | 286 | 0.0 | 1.0 | 0.00 | 1.38 | 0.00 | 97 | 1002.1 |
| 20260508090034 | 42 | 286 | 0.0 | 0.0 | 0.00 | 1.38 | 0.00 | 97 | 1001.5 |
| 20260508084527 | 42 | 286 | 0.0 | 0.0 | 0.00 | 1.38 | 0.00 | 97 | 1001.4 |
| 20260508083027 | 43 | 286 | 0.0 | 0.0 | 0.00 | 1.38 | 0.00 | 97 | 1001.8 |
| 20260508081526 | 43 | 286 | 0.0 | 0.0 | 0.00 | 1.38 | 0.00 | 96 | 1002.0 |
| 20260508080035 | 43 | 286 | 0.0 | 0.0 | 0.00 | 1.38 | 0.00 | 97 | 1001.5 |
| 20260508074520 | 44 | 286 | 0.0 | 0.0 | 0.00 | 1.38 | 0.00 | 97 | 1001.5 |
| 20260508073020 | 44 | 286 | 0.0 | 1.0 | 0.00 | 1.38 | 0.00 | 97 | 1001.2 |
| 20260508071516 | 45 | 286 | 0.0 | 1.0 | 0.00 | 1.38 | 0.00 | 97 | 1001.3 |
| 20260508070021 | 45 | 286 | 0.0 | 1.0 | 0.00 | 1.38 | 0.00 | 97 | 1001.4 |
| 20260508064533 | 46 | 286 | 0.0 | 3.0 | 0.00 | 1.38 | 0.00 | 97 | 1001.5 |
| 20260508063010 | 46 | 286 | 0.0 | 0.0 | 0.00 | 1.38 | 0.00 | 97 | 1001.7 |
| 20260508061512 | 46 | 287 | 0.0 | 2.0 | 0.00 | 1.38 | 0.00 | 97 | 1001.4 |
| 20260508060008 | 47 | 287 | 0.0 | 2.0 | 0.00 | 1.38 | 0.00 | 97 | 1001.4 |
| 20260508054508 | 47 | 290 | 1.0 | 3.0 | 0.00 | 1.38 | 0.00 | 97 | 1001.5 |
| 20260508053005 | 47 | 286 | 0.0 | 0.0 | 0.00 | 1.38 | 0.00 | 97 | 1001.5 |
| 20260508051504 | 47 | 286 | 0.0 | 1.0 | 0.00 | 1.38 | 0.00 | 97 | 1001.5 |
| 20260508050007 | 47 | 286 | 0.0 | 0.0 | 0.00 | 1.39 | 0.00 | 97 | 1001.3 |
| 20260508044501 | 47 | 286 | 0.0 | 0.0 | 0.00 | 1.39 | 0.00 | 97 | 1001.3 |
| 20260508043105 | 48 | 286 | 0.0 | 0.0 | 0.00 | 1.39 | 0.00 | 97 | 1001.3 |
| 20260508041602 | 48 | 286 | 0.0 | 2.0 | 0.00 | 1.39 | 0.00 | 97 | 1001.5 |
| 20260508040101 | 49 | 286 | 0.0 | 2.0 | 0.00 | 1.39 | 0.00 | 97 | 1001.4 |
| 20260508034554 | 49 | 286 | 0.0 | 2.0 | 0.00 | 1.39 | 0.00 | 97 | 1001.7 |
| 20260508033051 | 49 | 286 | 0.0 | 4.0 | 0.00 | 1.39 | 0.00 | 97 | 1001.8 |
| 20260508031549 | 49 | 128 | 0.0 | 0.0 | 0.00 | 1.39 | 0.00 | 97 | 1001.8 |
| 20260508030053 | 49 | 128 | 0.0 | 0.0 | 0.00 | 1.39 | 1.39 | 97 | 1001.9 |
| 20260508024547 | 49 | 128 | 0.0 | 0.0 | 0.00 | 1.39 | 1.39 | 97 | 1002.0 |
| 20260508023046 | 49 | 127 | 0.0 | 0.0 | 0.00 | 1.39 | 1.39 | 97 | 1002.1 |
| 20260508021546 | 49 | 127 | 0.0 | 1.0 | 0.00 | 1.39 | 1.39 | 97 | 1002.1 |
| 20260508020048 | 49 | 127 | 0.0 | 0.0 | 0.00 | 1.39 | 1.39 | 97 | 1001.9 |
| 20260508014545 | 49 | 127 | 0.0 | 0.0 | 0.00 | 1.39 | 1.39 | 97 | 1002.1 |
| 20260508013045 | 49 | 127 | 0.0 | 0.0 | 0.00 | 1.39 | 1.39 | 97 | 1002.1 |
| 20260508011546 | 49 | 127 | 0.0 | 1.0 | 0.00 | 1.39 | 1.39 | 97 | 1002.1 |
| 20260508010043 | 49 | 127 | 0.0 | 2.0 | 0.00 | 1.39 | 1.39 | 97 | 1001.8 |
| 20260508004549 | 49 | 125 | 0.0 | 2.0 | 0.00 | 1.39 | 1.39 | 97 | 1001.8 |
| 20260508003048 | 49 | 125 | 0.0 | 2.0 | 0.00 | 1.39 | 1.39 | 96 | 1001.9 |
| 20260508001542 | 49 | 125 | 2.0 | 3.0 | 0.00 | 1.39 | 1.39 | 96 | 1001.9 |
| 20260508000040 | 49 | 125 | 0.0 | 0.0 | 0.00 | 1.39 | 1.39 | 97 | 1001.7 |
| 20260507234551 | 50 | 127 | 0.0 | 4.0 | 0.00 | 1.39 | 1.39 | 96 | 1001.6 |
| 20260507233053 | 50 | 127 | 1.0 | 3.0 | 0.00 | 1.39 | 1.39 | 97 | 1001.8 |
| 20260507231538 | 50 | 128 | 0.0 | 1.0 | 0.00 | 1.39 | 1.39 | 97 | 1002.1 |
| 20260507230040 | 50 | 128 | 0.0 | 0.0 | 0.00 | 1.39 | 1.39 | 97 | 1002.1 |
| 20260507224538 | 50 | 128 | 0.0 | 2.0 | 0.00 | 1.39 | 1.39 | 96 | 1002.1 |
| 20260507223050 | 50 | 128 | 0.0 | 5.0 | 0.00 | 1.39 | 1.39 | 96 | 1001.9 |
| 20260507221536 | 50 | 135 | 4.0 | 7.0 | 0.00 | 1.39 | 1.39 | 97 | 1002.0 |
| 20260507220039 | 50 | 131 | 2.0 | 4.0 | 0.00 | 1.39 | 1.39 | 96 | 1001.8 |
| 20260507214535 | 51 | 118 | 3.0 | 7.0 | 0.00 | 1.39 | 1.39 | 96 | 1001.9 |
| 20260507213035 | 50 | 121 | 3.0 | 8.0 | 0.01 | 1.39 | 1.39 | 96 | 1002.2 |
| 20260507211545 | 51 | 153 | 1.0 | 9.0 | 0.02 | 1.39 | 1.39 | 97 | 1002.6 |
| 20260507210040 | 50 | 177 | 3.0 | 9.0 | 0.03 | 1.39 | 1.39 | 97 | 1002.0 |
| 20260507204536 | 50 | 141 | 4.0 | 12.0 | 0.05 | 1.39 | 1.39 | 97 | 1001.9 |
| 20260507203031 | 50 | 131 | 7.0 | 14.0 | 0.08 | 1.38 | 1.38 | 96 | 1001.3 |
| 20260507201528 | 50 | 105 | 8.0 | 13.0 | 0.11 | 1.37 | 1.37 | 96 | 1001.9 |
| 20260507200025 | 50 | 149 | 5.0 | 10.0 | 0.16 | 1.35 | 1.35 | 96 | 1003.0 |
| 20260507194533 | 50 | 132 | 3.0 | 10.0 | 0.24 | 1.33 | 1.33 | 96 | 1003.3 |
| 20260507193022 | 51 | 114 | 6.0 | 11.0 | 0.34 | 1.30 | 1.30 | 96 | 1003.3 |
| 20260507191519 | 51 | 116 | 3.0 | 7.0 | 0.39 | 1.26 | 1.26 | 96 | 1003.8 |
| 20260507190029 | 51 | 141 | 2.0 | 8.0 | 0.45 | 1.20 | 1.20 | 96 | 1004.2 |
| 20260507184514 | 51 | 118 | 3.0 | 10.0 | 0.52 | 1.09 | 1.09 | 96 | 1004.5 |
| 20260507183016 | 50 | 130 | 1.0 | 5.0 | 0.73 | 0.96 | 0.96 | 96 | 1004.9 |
| 20260507181513 | 50 | 109 | 2.0 | 7.0 | 0.72 | 0.87 | 0.87 | 96 | 1004.9 |
| 20260507180017 | 50 | 214 | 4.0 | 10.0 | 0.64 | 0.74 | 0.74 | 96 | 1005.2 |
| 20260507174513 | 50 | 214 | 3.0 | 17.0 | 0.48 | 0.55 | 0.55 | 96 | 1005.7 |
| 20260507173017 | 49 | 189 | 1.0 | 8.0 | 0.17 | 0.22 | 0.22 | 96 | 1005.1 |
| 20260507171505 | 49 | 132 | 4.0 | 10.0 | 0.11 | 0.14 | 0.14 | 96 | 1004.9 |
| 20260507170002 | 49 | 129 | 4.0 | 11.0 | 0.07 | 0.10 | 0.10 | 95 | 1005.2 |
| 20260507164636 | 49 | 147 | 3.0 | 11.0 | 0.04 | 0.07 | 0.07 | 95 | 1005.5 |
| 20260507164501 | 49 | 153 | 3.0 | 11.0 | 0.04 | 0.07 | 0.07 | 95 | 1005.5 |
| 20260507163100 | 50 | 153 | 4.0 | 9.0 | 0.02 | 0.05 | 0.05 | 96 | 1005.9 |
| 20260507161600 | 50 | 124 | 4.0 | 11.0 | 0.00 | 0.03 | 0.03 | 96 | 1006.3 |
| 20260507160053 | 50 | 199 | 5.0 | 16.0 | 0.00 | 0.03 | 0.03 | 95 | 1006.8 |
| 20260507154551 | 49 | 153 | 4.0 | 12.0 | 0.00 | 0.03 | 0.03 | 95 | 1007.1 |
| 20260507153046 | 50 | 136 | 6.0 | 13.0 | 0.00 | 0.03 | 0.03 | 95 | 1007.8 |
| 20260507151546 | 51 | 132 | 5.0 | 12.0 | 0.00 | 0.03 | 0.03 | 95 | 1008.2 |
| 20260507150046 | 51 | 118 | 4.0 | 9.0 | 0.00 | 0.03 | 0.03 | 95 | 1008.4 |
| 20260507144541 | 51 | 90 | 4.0 | 12.0 | 0.00 | 0.03 | 0.03 | 95 | 1008.6 |
| 20260507143042 | 52 | 121 | 5.0 | 13.0 | 0.00 | 0.03 | 0.03 | 96 | 1008.8 |